When you browse on this site, cookies collect data to enhance your experience and personalize the content and advertising you see.
Visit our Privacy Policy to learn more. By continuing to use the site, you agree to this use of cookies and data.
  • In Österreich
  • Länderverzeichnis
  • Für 7 Tage
  • Wassertemperatur
  • Satellitenkarten
  • Wetterkarte
  • News
  • Widgets
  • user-avatar
    Anmelden

    Stündliche Wetter Tshikapa

    Heute, 19 Dezember, Mittwoch

    Zeit Temperatur Niederschläge Wind Luftdruck Luftfeuchtigkeit
    00:00 +22°C° 0.6 mm 0 m/S 717 mmHg 94%
    01:00 +23°C° 0 mm 1 m/S 717 mmHg 96%
    02:00 +21°C° 0.2 mm 0 m/S 717 mmHg 96%
    03:00 +21°C° 0.2 mm 0 m/S 717 mmHg 96%
    04:00 +21°C° 0.2 mm 0 m/S 717 mmHg 97%
    05:00 +22°C° 0 mm 0 m/S 717 mmHg 94%
    06:00 +23°C° 0 mm 0 m/S 717 mmHg 92%
    07:00 +24°C° 0 mm 0 m/S 718 mmHg 87%
    08:00 +25°C° 1 mm 0 m/S 718 mmHg 85%
    09:00 +28°C° 1 mm 1 m/S 718 mmHg 82%
    10:00 +29°C° 1 mm 1 m/S 718 mmHg 80%
    11:00 +30°C° 0.8 mm 1 m/S 717 mmHg 74%
    12:00 +31°C° 0.8 mm 1 m/S 717 mmHg 68%
    13:00 +32°C° 0.8 mm 1 m/S 716 mmHg 63%
    14:00 +31°C° 1 mm 1 m/S 716 mmHg 70%
    15:00 +29°C° 1 mm 1 m/S 715 mmHg 78%
    16:00 +28°C° 1 mm 1 m/S 715 mmHg 86%
    17:00 +27°C° 0.2 mm 1 m/S 715 mmHg 89%
    18:00 +26°C° 0.2 mm 1 m/S 715 mmHg 92%
    19:00 +25°C° 0.2 mm 1 m/S 716 mmHg 96%
    20:00 +24°C° 0.2 mm 1 m/S 716 mmHg 96%
    21:00 +22°C° 0.2 mm 0 m/S 717 mmHg 96%
    22:00 +22°C° 0.2 mm 0 m/S 717 mmHg 95%
    23:00 +22°C° 0.2 mm 0 m/S 717 mmHg 96%

    Morgen, 20 Dezember, Donnerstag

    Zeit Temperatur Niederschläge Wind Luftdruck Luftfeuchtigkeit
    00:00 +22°C° 0.2 mm 0 m/S 717 mmHg 96%
    01:00 +22°C° 0.2 mm 0 m/S 716 mmHg 97%
    02:00 +21°C° 0.1 mm 0 m/S 716 mmHg 97%
    03:00 +21°C° 0.1 mm 0 m/S 716 mmHg 97%
    04:00 +21°C° 0.1 mm 0 m/S 716 mmHg 96%
    05:00 +22°C° 0.2 mm 0 m/S 717 mmHg 95%
    06:00 +22°C° 0.2 mm 0 m/S 717 mmHg 94%
    07:00 +23°C° 0.2 mm 0 m/S 718 mmHg 93%
    08:00 +24°C° 0.8 mm 0 m/S 718 mmHg 89%
    09:00 +27°C° 0.8 mm 1 m/S 718 mmHg 84%
    10:00 +29°C° 0.8 mm 1 m/S 718 mmHg 80%
    11:00 +29°C° 1 mm 1 m/S 717 mmHg 81%
    12:00 +28°C° 1 mm 1 m/S 717 mmHg 82%
    13:00 +28°C° 1 mm 1 m/S 716 mmHg 83%
    14:00 +29°C° 0.6 mm 1 m/S 716 mmHg 78%
    15:00 +29°C° 0.6 mm 1 m/S 715 mmHg 73%
    16:00 +28°C° 0.6 mm 0 m/S 714 mmHg 67%
    17:00 +26°C° 0 mm 0 m/S 715 mmHg 73%
    18:00 +24°C° 0 mm 0 m/S 715 mmHg 79%
    19:00 +23°C° 0 mm 0 m/S 715 mmHg 85%
    20:00 +23°C° 0 mm 0 m/S 716 mmHg 86%
    21:00 +22°C° 0 mm 0 m/S 716 mmHg 87%
    22:00 +22°C° 0 mm 0 m/S 717 mmHg 87%
    23:00 +22°C° 0 mm 0 m/S 717 mmHg 88%

    übermorgen, 21 Dezember, Freitag

    Zeit Temperatur Niederschläge Wind Luftdruck Luftfeuchtigkeit
    00:00 +22°C° 0 mm 0 m/S 716 mmHg 89%
    01:00 +24°C° 0 mm 1 m/S 716 mmHg 91%
    02:00 +23°C° 0 mm 1 m/S 716 mmHg 91%
    03:00 +23°C° 0 mm 1 m/S 716 mmHg 91%
    04:00 +23°C° 0 mm 1 m/S 716 mmHg 91%
    05:00 +24°C° 0 mm 1 m/S 716 mmHg 89%
    06:00 +24°C° 0 mm 1 m/S 717 mmHg 87%
    07:00 +25°C° 0 mm 1 m/S 717 mmHg 85%
    08:00 +26°C° 0.1 mm 1 m/S 718 mmHg 81%
    09:00 +27°C° 0.1 mm 1 m/S 718 mmHg 78%
    10:00 +28°C° 0.1 mm 1 m/S 718 mmHg 74%
    11:00 +28°C° 0.8 mm 2 m/S 717 mmHg 78%
    12:00 +27°C° 0.8 mm 2 m/S 717 mmHg 82%
    13:00 +27°C° 0.8 mm 2 m/S 716 mmHg 86%
    14:00 +27°C° 0.7 mm 2 m/S 716 mmHg 86%
    15:00 +27°C° 0.7 mm 1 m/S 715 mmHg 87%
    16:00 +27°C° 0.7 mm 1 m/S 715 mmHg 88%
    17:00 +26°C° 0 mm 1 m/S 715 mmHg 89%
    18:00 +25°C° 0 mm 1 m/S 715 mmHg 91%
    19:00 +24°C° 0 mm 1 m/S 715 mmHg 93%
    20:00 +22°C° 0 mm 0 m/S 716 mmHg 92%
    21:00 +22°C° 0 mm 0 m/S 716 mmHg 92%
    22:00 +22°C° 0 mm 0 m/S 717 mmHg 92%
    23:00 +21°C° 0 mm 0 m/S 716 mmHg 93%

    22 Dezember, Samstag

    Zeit Temperatur Niederschläge Wind Luftdruck Luftfeuchtigkeit
    00:00 +21°C° 0 mm 0 m/S 716 mmHg 93%
    01:00 +21°C° 0 mm 0 m/S 715 mmHg 94%
    02:00 +21°C° 0 mm 0 m/S 715 mmHg 95%
    03:00 +20°C° 0 mm 0 m/S 715 mmHg 96%
    04:00 +20°C° 0 mm 0 m/S 715 mmHg 96%
    05:00 +21°C° 0 mm 0 m/S 716 mmHg 93%
    06:00 +22°C° 0 mm 0 m/S 717 mmHg 90%
    07:00 +22°C° 0 mm 0 m/S 717 mmHg 87%
    08:00 +25°C° 0.1 mm 0 m/S 717 mmHg 77%
    09:00 +29°C° 0.1 mm 1 m/S 718 mmHg 68%
    10:00 +31°C° 0.1 mm 1 m/S 718 mmHg 58%
    11:00 +31°C° 0.5 mm 2 m/S 717 mmHg 60%
    12:00 +31°C° 0.5 mm 2 m/S 716 mmHg 61%
    13:00 +31°C° 0.5 mm 2 m/S 715 mmHg 63%
    14:00 +31°C° 0.5 mm 2 m/S 715 mmHg 63%
    15:00 +31°C° 0.5 mm 2 m/S 714 mmHg 62%
    16:00 +31°C° 0.5 mm 1 m/S 714 mmHg 62%
    17:00 +29°C° 0.1 mm 1 m/S 714 mmHg 70%
    18:00 +27°C° 0.1 mm 1 m/S 714 mmHg 77%
    19:00 +23°C° 0.1 mm 0 m/S 715 mmHg 85%
    20:00 +22°C° 0 mm 0 m/S 715 mmHg 86%
    21:00 +22°C° 0 mm 0 m/S 716 mmHg 87%
    22:00 +21°C° 0 mm 0 m/S 716 mmHg 89%
    23:00 +21°C° 0 mm 0 m/S 716 mmHg 89%

    23 Dezember, Sonntag

    Zeit Temperatur Niederschläge Wind Luftdruck Luftfeuchtigkeit
    00:00 +21°C° 0 mm 0 m/S 715 mmHg 90%
    01:00 +21°C° 0 mm 0 m/S 715 mmHg 90%
    02:00 +21°C° 0 mm 0 m/S 715 mmHg 91%
    03:00 +20°C° 0 mm 0 m/S 715 mmHg 92%
    04:00 +20°C° 0 mm 0 m/S 715 mmHg 93%
    05:00 +21°C° 0 mm 0 m/S 715 mmHg 89%
    06:00 +22°C° 0 mm 0 m/S 716 mmHg 84%
    07:00 +23°C° 0 mm 0 m/S 717 mmHg 80%
    08:00 +27°C° 0 mm 1 m/S 717 mmHg 69%
    09:00 +30°C° 0 mm 1 m/S 717 mmHg 58%
    10:00 +32°C° 0 mm 2 m/S 717 mmHg 47%
    11:00 +34°C° 0 mm 2 m/S 716 mmHg 45%
    12:00 +35°C° 0 mm 2 m/S 715 mmHg 42%
    13:00 +36°C° 0 mm 2 m/S 714 mmHg 40%
    14:00 +35°C° 0 mm 2 m/S 714 mmHg 42%
    15:00 +35°C° 0 mm 2 m/S 713 mmHg 44%
    16:00 +33°C° 0 mm 1 m/S 713 mmHg 46%
    17:00 +31°C° 0 mm 1 m/S 713 mmHg 53%
    18:00 +29°C° 0 mm 1 m/S 713 mmHg 60%
    19:00 +27°C° 0 mm 1 m/S 714 mmHg 68%
    20:00 +25°C° 0 mm 0 m/S 714 mmHg 70%
    21:00 +24°C° 0 mm 0 m/S 715 mmHg 72%
    22:00 +23°C° 0 mm 0 m/S 715 mmHg 74%
    23:00 +23°C° 0.1 mm 0 m/S 715 mmHg 80%

    24 Dezember, Montag

    Zeit Temperatur Niederschläge Wind Luftdruck Luftfeuchtigkeit
    00:00 +24°C° 0.1 mm 1 m/S 715 mmHg 86%
    01:00 +23°C° 0.1 mm 1 m/S 715 mmHg 91%
    02:00 +23°C° 0.4 mm 1 m/S 715 mmHg 93%
    03:00 +20°C° 0.4 mm 0 m/S 715 mmHg 95%
    04:00 +20°C° 0.4 mm 0 m/S 715 mmHg 97%
    05:00 +21°C° 0.2 mm 0 m/S 716 mmHg 95%
    06:00 +22°C° 0.2 mm 0 m/S 716 mmHg 93%
    07:00 +23°C° 0.2 mm 0 m/S 717 mmHg 92%
    08:00 +25°C° 0.5 mm 0 m/S 717 mmHg 84%
    09:00 +29°C° 0.5 mm 1 m/S 716 mmHg 76%
    10:00 +31°C° 0.5 mm 1 m/S 716 mmHg 69%
    11:00 +32°C° 0.3 mm 1 m/S 716 mmHg 61%
    12:00 +33°C° 0.3 mm 1 m/S 715 mmHg 54%
    13:00 +35°C° 0.3 mm 2 m/S 714 mmHg 46%
    14:00 +35°C° 0 mm 2 m/S 714 mmHg 48%
    15:00 +34°C° 0 mm 2 m/S 713 mmHg 49%
    16:00 +34°C° 0 mm 2 m/S 713 mmHg 51%
    17:00 +31°C° 0.1 mm 1 m/S 713 mmHg 59%
    18:00 +29°C° 0.1 mm 1 m/S 714 mmHg 67%
    19:00 +27°C° 0.1 mm 1 m/S 714 mmHg 75%
    20:00 +26°C° 0.2 mm 1 m/S 715 mmHg 77%
    21:00 +26°C° 0.2 mm 1 m/S 715 mmHg 80%
    22:00 +25°C° 0.2 mm 1 m/S 716 mmHg 82%
    23:00 +25°C° 0.2 mm 1 m/S 715 mmHg 85%
    Mehr zeigen